Lake Charles, LA

11:23 PM CDT on August 23, 2016 (GMT -0500)
Lake Charles Regional

Weather History for KLCH - June, 2013

Change the Weather History Date:

Tuesday, June 11, 2013

  Actual Average Record
Temperature  
Mean Temperature 84 °F 81 °F  
Max Temperature 91 °F 89 °F 99 °F (1911)
Min Temperature 76 °F 72 °F 56 °F (1913)
Degree Days  
Heating Degree Days 0 0  
Month to date heating degree days 0 0  
Since 1 June heating degree days 0 0  
Since 1 July heating degree days 1267 1490  
Cooling Degree Days 19 16  
Month to date cooling degree days 180 163  
Year to date cooling degree days 665 701  
Since 1 June cooling degree days 180 163  
Growing Degree Days 33 (Base 50)    
Moisture  
Dew Point 75 °F    
Average Humidity 80    
Maximum Humidity 100    
Minimum Humidity 59    
Precipitation  
Precipitation 0.00 in 0.22 in 2.32 in (1981)
Month to date precipitation 2.08 2.22  
Year to date precipitation 31.60 23.10  
Snow  
Snow 0.00 in 0.00 in 0.00 in ()
Month to date snowfall 0.0 0.0  
Since 1 June snowfall 0.0 0.0  
Since 1 July snowfall 0.0 0.1  
Snow Depth 0.00 in    
Sea Level Pressure  
Sea Level Pressure 30.06 in    
Wind  
Wind Speed 4 mph (South)    
Max Wind Speed 12 mph    
Max Gust Speed 16 mph    
Visibility 9 miles    
Events      
T = Trace of Precipitation, MM = Missing Value Source: NWS Daily Summary

Daily Weather History Graph

Daily Weather History Graph

Search for Another Location

Airport or City:

Trip Planner

Search our weather history database for the weather conditions in past years. The results will help you decide how hot, cold, wet, or windy it might be!

Date:

Astronomy

Jun. 11, 2013 Rise Set
Actual Time 6:10 AM CDT 8:14 PM CDT
Civil Twilight 5:43 AM CDT 8:41 PM CDT
Nautical Twilight 5:10 AM CDT 9:15 PM CDT
Astronomical Twilight 4:34 AM CDT 9:50 PM CDT
Moon 8:46 AM CDT (6/11) 10:28 PM CDT (6/11)
Length of Visible Light 14h 58m
Length of Day
14h 03m
Waxing Crescent, 8% of the Moon is Illuminated
Jun 11
Waxing Crescent
Jun 16
First Quarter
Jun 23
Full
Jun 29
Last Quarter
Jul 8
New

Hourly Weather History & Observations

Time (CDT) Temp. Heat Index Dew Point Humidity Pressure Visibility Wind Dir Wind Speed Gust Speed Precip Events Conditions
12:53 AM 77.0 °F - 75.0 °F 94% 30.02 in 8.0 mi Calm Calm - N/A   Clear
1:53 AM 75.9 °F - 73.9 °F 94% 30.02 in 6.0 mi Calm Calm - N/A   Clear
2:53 AM 75.9 °F - 75.0 °F 97% 30.03 in 8.0 mi SSE 3.5 mph - N/A   Partly Cloudy
3:53 AM 78.1 °F - 75.0 °F 90% 30.03 in 9.0 mi Calm Calm - N/A   Clear
4:53 AM 78.1 °F - 75.9 °F 93% 30.04 in 8.0 mi Calm Calm - N/A   Clear
5:53 AM 75.9 °F - 73.9 °F 94% 30.04 in 7.0 mi Calm Calm - N/A   Clear
6:53 AM 78.1 °F - 75.0 °F 90% 30.06 in 6.0 mi Calm Calm - N/A   Scattered Clouds
7:53 AM 81.0 °F 87.9 °F 77.0 °F 88% 30.08 in 8.0 mi SE 3.5 mph - N/A   Scattered Clouds
8:53 AM 84.0 °F 94.8 °F 78.1 °F 82% 30.09 in 10.0 mi SE 4.6 mph - N/A   Mostly Cloudy
9:53 AM 86.0 °F 96.0 °F 75.9 °F 72% 30.09 in 10.0 mi SW 4.6 mph - N/A   Mostly Cloudy
10:00 AM 86.0 °F 95.1 °F 75.2 °F 70% 30.07 in 10.0 mi Variable 3.5 mph - N/A   Mostly Cloudy
10:53 AM 88.0 °F 98.5 °F 75.9 °F 67% 30.09 in 10.0 mi South 4.6 mph - N/A   Mostly Cloudy
11:00 AM 87.8 °F 97.6 °F 75.2 °F 66% 30.07 in 10.0 mi Variable 5.8 mph - N/A   Partly Cloudy
11:53 AM 89.1 °F 98.0 °F 73.9 °F 61% 30.09 in 10.0 mi South 5.8 mph - N/A   Mostly Cloudy
12:53 PM 88.0 °F 97.5 °F 75.0 °F 65% 30.09 in 10.0 mi SW 9.2 mph - N/A   Mostly Cloudy
1:53 PM 90.0 °F 99.0 °F 73.9 °F 59% 30.09 in 10.0 mi Variable 6.9 mph - N/A   Clear
2:53 PM 91.0 °F 101.6 °F 75.0 °F 59% 30.06 in 10.0 mi South 8.1 mph - N/A   Clear
3:53 PM 90.0 °F 100.2 °F 75.0 °F 61% 30.05 in 10.0 mi SW 8.1 mph - N/A   Scattered Clouds
4:53 PM 89.1 °F 98.0 °F 73.9 °F 61% 30.04 in 10.0 mi SW 9.2 mph - N/A   Partly Cloudy
5:53 PM 89.1 °F 98.0 °F 73.9 °F 61% 30.03 in 10.0 mi SSW 6.9 mph - N/A   Clear
6:53 PM 87.1 °F 95.4 °F 73.9 °F 65% 30.03 in 10.0 mi South 8.1 mph - N/A   Clear
7:53 PM 84.0 °F 91.9 °F 75.0 °F 74% 30.04 in 10.0 mi SSW 4.6 mph - N/A   Clear
8:53 PM 81.0 °F 86.7 °F 75.0 °F 82% 30.04 in 10.0 mi Calm Calm - N/A   Clear
9:53 PM 79.0 °F - 75.0 °F 88% 30.05 in 10.0 mi South 3.5 mph - N/A   Clear
10:53 PM 79.0 °F - 75.9 °F 90% 30.06 in 10.0 mi Calm Calm - N/A   Clear
11:53 PM 78.1 °F - 75.0 °F 90% 30.06 in 10.0 mi SE 3.5 mph - N/A   Clear